When you browse on this site, cookies collect data to enhance your experience and personalize the content and advertising you see.
Visit our Privacy Policy to learn more. By continuing to use the site, you agree to this use of cookies and data.
  • In Germany
  • List of Countries
  • For 7 days
  • Water Temperature
  • Satellite Maps
  • Weather Map
  • Weather Widgets
  • user-avatar
    Login

    Hourly Weather Yelsk

    Today, 16 November, Friday

    Time Temperature Precipitation Wind Pressure Humidity
    00:00 -1°C° 0 mm 2 mps 761 mmHg 90%
    01:00 -2°C° 0 mm 2 mps 761 mmHg 90%
    02:00 -2°C° 0 mm 2 mps 762 mmHg 89%
    03:00 -3°C° 0 mm 2 mps 762 mmHg 87%
    04:00 -3°C° 0 mm 2 mps 762 mmHg 86%
    05:00 -4°C° 0 mm 2 mps 763 mmHg 84%
    06:00 -4°C° 0 mm 2 mps 763 mmHg 80%
    07:00 -5°C° 0 mm 3 mps 763 mmHg 76%
    08:00 -5°C° 0 mm 3 mps 763 mmHg 71%
    09:00 -4°C° 0 mm 3 mps 764 mmHg 64%
    10:00 -2°C° 0 mm 3 mps 764 mmHg 57%
    11:00 -1°C° 0 mm 4 mps 764 mmHg 50%
    12:00 -1°C° 0 mm 4 mps 764 mmHg 49%
    13:00 0°C° 0 mm 4 mps 764 mmHg 48%
    14:00 0°C° 0 mm 4 mps 764 mmHg 47%
    15:00 -1°C° 0 mm 4 mps 764 mmHg 53%
    16:00 -1°C° 0 mm 3 mps 764 mmHg 60%
    17:00 -4°C° 0 mm 3 mps 764 mmHg 66%
    18:00 -4°C° 0 mm 3 mps 764 mmHg 67%
    19:00 -4°C° 0 mm 3 mps 764 mmHg 67%
    20:00 -5°C° 0 mm 3 mps 764 mmHg 68%
    21:00 -5°C° 0 mm 3 mps 764 mmHg 67%
    22:00 -5°C° 0 mm 3 mps 764 mmHg 65%
    23:00 -5°C° 0 mm 3 mps 765 mmHg 63%

    Tomorrow, 17 November, Saturday

    Time Temperature Precipitation Wind Pressure Humidity
    00:00 -5°C° 0 mm 3 mps 765 mmHg 62%
    01:00 -6°C° 0 mm 3 mps 765 mmHg 60%
    02:00 -6°C° 0 mm 3 mps 765 mmHg 59%
    03:00 -5°C° 0 mm 2 mps 764 mmHg 58%
    04:00 -5°C° 0 mm 2 mps 764 mmHg 57%
    05:00 -5°C° 0 mm 2 mps 764 mmHg 56%
    06:00 -5°C° 0 mm 2 mps 764 mmHg 55%
    07:00 -5°C° 0 mm 2 mps 764 mmHg 54%
    08:00 -5°C° 0 mm 2 mps 764 mmHg 53%
    09:00 -4°C° 0 mm 2 mps 764 mmHg 48%
    10:00 -2°C° 0 mm 2 mps 764 mmHg 43%
    11:00 -1°C° 0 mm 2 mps 764 mmHg 38%
    12:00 +1°C° 0 mm 2 mps 764 mmHg 38%
    13:00 +1°C° 0 mm 2 mps 763 mmHg 37%
    14:00 +2°C° 0 mm 2 mps 763 mmHg 37%
    15:00 -1°C° 0 mm 2 mps 762 mmHg 43%
    16:00 -2°C° 0 mm 2 mps 762 mmHg 48%
    17:00 -1°C° 0 mm 1 mps 762 mmHg 54%
    18:00 -2°C° 0 mm 1 mps 761 mmHg 54%
    19:00 -2°C° 0 mm 1 mps 761 mmHg 55%
    20:00 -2°C° 0 mm 1 mps 761 mmHg 56%
    21:00 -2°C° 0 mm 1 mps 761 mmHg 55%
    22:00 -2°C° 0 mm 1 mps 760 mmHg 54%
    23:00 -2°C° 0 mm 1 mps 760 mmHg 53%

    Day after tomorrow, 18 November, Sunday

    Time Temperature Precipitation Wind Pressure Humidity
    00:00 -2°C° 0 mm 1 mps 759 mmHg 52%
    01:00 -2°C° 0 mm 1 mps 759 mmHg 50%
    02:00 -4°C° 0 mm 2 mps 758 mmHg 49%
    03:00 -4°C° 0 mm 2 mps 757 mmHg 48%
    04:00 -4°C° 0 mm 2 mps 756 mmHg 47%
    05:00 -4°C° 0 mm 2 mps 756 mmHg 46%
    06:00 -5°C° 0 mm 3 mps 755 mmHg 45%
    07:00 -5°C° 0 mm 3 mps 754 mmHg 44%
    08:00 -4°C° 0 mm 3 mps 754 mmHg 43%
    09:00 -2°C° 0 mm 3 mps 753 mmHg 46%
    10:00 -2°C° 0 mm 3 mps 753 mmHg 48%
    11:00 -1°C° 0 mm 3 mps 752 mmHg 51%
    12:00 -1°C° 0.2 mm 3 mps 752 mmHg 60%
    13:00 -1°C° 0.2 mm 3 mps 751 mmHg 68%
    14:00 -1°C° 0.2 mm 3 mps 751 mmHg 77%
    15:00 -2°C° 0.1 mm 2 mps 750 mmHg 81%
    16:00 -2°C° 0.1 mm 2 mps 750 mmHg 86%
    17:00 -2°C° 0.1 mm 2 mps 750 mmHg 90%
    18:00 -2°C° 0 mm 2 mps 749 mmHg 91%
    19:00 0°C° 0 mm 1 mps 749 mmHg 92%
    20:00 0°C° 0 mm 1 mps 749 mmHg 93%
    21:00 0°C° 0 mm 1 mps 749 mmHg 93%
    22:00 0°C° 0 mm 1 mps 749 mmHg 94%
    23:00 +1°C° 0 mm 1 mps 749 mmHg 95%

    19 November, Monday

    Time Temperature Precipitation Wind Pressure Humidity
    00:00 0°C° 0 mm 1 mps 749 mmHg 95%
    01:00 0°C° 0 mm 1 mps 748 mmHg 96%
    02:00 0°C° 0 mm 1 mps 748 mmHg 96%
    03:00 0°C° 0 mm 1 mps 748 mmHg 96%
    04:00 0°C° 0 mm 1 mps 748 mmHg 96%
    05:00 -1°C° 0 mm 0 mps 748 mmHg 96%
    06:00 0°C° 0 mm 1 mps 748 mmHg 96%
    07:00 0°C° 0 mm 1 mps 749 mmHg 95%
    08:00 0°C° 0 mm 1 mps 749 mmHg 95%
    09:00 -1°C° 0 mm 2 mps 749 mmHg 91%
    10:00 -1°C° 0 mm 2 mps 749 mmHg 87%
    11:00 +1°C° 0 mm 2 mps 750 mmHg 84%
    12:00 +1°C° 0 mm 2 mps 750 mmHg 83%
    13:00 +1°C° 0 mm 2 mps 750 mmHg 82%
    14:00 +1°C° 0 mm 2 mps 750 mmHg 82%
    15:00 +1°C° 0 mm 2 mps 750 mmHg 84%
    16:00 -1°C° 0 mm 2 mps 750 mmHg 87%
    17:00 -2°C° 0 mm 2 mps 750 mmHg 90%
    18:00 -2°C° 0 mm 2 mps 751 mmHg 90%
    19:00 -3°C° 0 mm 2 mps 751 mmHg 91%
    20:00 -4°C° 0 mm 2 mps 751 mmHg 91%
    21:00 -4°C° 0 mm 2 mps 751 mmHg 89%
    22:00 -4°C° 0 mm 2 mps 752 mmHg 88%
    23:00 -5°C° 0 mm 2 mps 752 mmHg 86%

    20 November, Tuesday

    Time Temperature Precipitation Wind Pressure Humidity
    00:00 -5°C° 0 mm 2 mps 752 mmHg 83%
    01:00 -4°C° 0 mm 2 mps 752 mmHg 80%
    02:00 -4°C° 0 mm 2 mps 752 mmHg 77%
    03:00 -5°C° 0 mm 3 mps 752 mmHg 78%
    04:00 -5°C° 0 mm 3 mps 752 mmHg 80%
    05:00 -5°C° 0 mm 3 mps 751 mmHg 81%
    06:00 -4°C° 0.1 mm 3 mps 751 mmHg 85%
    07:00 -4°C° 0.1 mm 3 mps 751 mmHg 88%
    08:00 -3°C° 0.1 mm 4 mps 751 mmHg 91%
    09:00 -3°C° 0.3 mm 4 mps 751 mmHg 90%
    10:00 -2°C° 0.3 mm 4 mps 751 mmHg 90%
    11:00 -1°C° 0.3 mm 4 mps 751 mmHg 89%
    12:00 -1°C° 0.3 mm 4 mps 751 mmHg 89%
    13:00 -1°C° 0.3 mm 4 mps 751 mmHg 88%
    14:00 0°C° 0.3 mm 3 mps 750 mmHg 88%
    15:00 0°C° 0.1 mm 3 mps 750 mmHg 89%
    16:00 -1°C° 0.1 mm 3 mps 750 mmHg 91%
    17:00 -1°C° 0.1 mm 3 mps 750 mmHg 92%
    18:00 -1°C° 0 mm 3 mps 750 mmHg 93%
    19:00 -1°C° 0 mm 3 mps 750 mmHg 93%
    20:00 -1°C° 0 mm 3 mps 750 mmHg 93%
    21:00 -2°C° 0 mm 2 mps 750 mmHg 94%
    22:00 -2°C° 0 mm 2 mps 750 mmHg 94%
    23:00 -2°C° 0 mm 2 mps 750 mmHg 95%

    21 November, Wednesday

    Time Temperature Precipitation Wind Pressure Humidity
    00:00 -2°C° 0 mm 3 mps 750 mmHg 95%
    01:00 -2°C° 0 mm 3 mps 750 mmHg 94%
    02:00 -1°C° 0 mm 3 mps 750 mmHg 94%
    03:00 -1°C° 0 mm 3 mps 749 mmHg 94%
    04:00 -2°C° 0 mm 4 mps 749 mmHg 93%
    05:00 -2°C° 0 mm 4 mps 748 mmHg 93%
    06:00 -2°C° 0 mm 5 mps 748 mmHg 92%
    07:00 -2°C° 0 mm 5 mps 748 mmHg 91%
    08:00 -2°C° 0 mm 5 mps 748 mmHg 90%
    09:00 -2°C° 0.2 mm 5 mps 747 mmHg 89%
    10:00 -3°C° 0.2 mm 6 mps 747 mmHg 88%
    11:00 -2°C° 0.2 mm 6 mps 746 mmHg 87%
    12:00 -2°C° 0.3 mm 6 mps 746 mmHg 87%
    13:00 -2°C° 0.3 mm 6 mps 745 mmHg 88%
    14:00 -2°C° 0.3 mm 7 mps 745 mmHg 88%
    15:00 -2°C° 0.3 mm 7 mps 744 mmHg 89%
    16:00 -2°C° 0.3 mm 7 mps 744 mmHg 89%
    17:00 -2°C° 0.3 mm 7 mps 743 mmHg 90%
    18:00 -3°C° 1.1 mm 7 mps 743 mmHg 90%
    19:00 -3°C° 1.1 mm 7 mps 743 mmHg 91%
    20:00 -3°C° 1.1 mm 7 mps 742 mmHg 91%
    21:00 -3°C° 0.9 mm 7 mps 742 mmHg 91%
    22:00 -3°C° 0.9 mm 7 mps 742 mmHg 92%
    23:00 -3°C° 0.9 mm 7 mps 742 mmHg 92%
    Show more